Showing default

OPS 4988 (GREB 6), 1271

Orbit data source: Space-Track

OPS 4988 (GREB 6), 1271 is an American payload satellite in LEO that was launched on Tue, 09 Mar 1965 UTC via a THOR SLV-2 AGENA D launch vehicle from the Air Force Western Test Range (AFWTR). Payload-class satellites include a variety of spacecraft equipped with specific instruments for various scientific and technological missions. These include communications satellites like Starlink; space stations such as the ISS; scientific satellites like the Hubble; Earth observation satellites from companies like Planet Labs, Umbra, and HawkEye 360; GPS; miniature CubeSats for education and research; and military/defense satellites.

Loading next visibility...
Identifier
1271, 1965-016A
Orbit
LEO
Country
Flag of USUS
Related business
Manufacturer
NRL
Mission
Defense Sigint
Bus & Motor
NRL 24", Unknown motor
Mass
48 kg wet, 48 kg dry
Launch date (UTC)
1965-03-09 (61 years ago)
Launch vehicle
THOR SLV-2 AGENA D
Launch site
Air Force Western Test Range (AFWTR)
Object type
Payload
Rocket body
Debris
Shape & HBR
Sphere, 0.3 m
Radar Cross Section
0.196 m², Medium (>0.1 m² and < 1m²)

Expand to show TLE details & history
Last TLE update: 7 hours ago

TLE from 7 hours ago
0 OPS 4988 (GREB 6)
1 01271U 65016A   25259.60057044  .00000019  00000-0  51714-4 0  9990
2 01271  70.0817  21.3640 0018275  66.0570 305.7233 13.96592462 80614
Epoch: 2025-09-16T14:24Z
TLE epoch observation values (Epoch: 2025-09-16T14:24:49.286Z)
Latitude
10.86842°
Longitude
173.33852°
Altitude
899.427 km
Speed
7.407 km/s
True Right ascension
01h 41m 19s
True Declination
10° 48' 22"
Sunlit
Object was in full shadow at epoch
Visualization orbit readout
Latitude
Unknown
Longitude
Unknown
Altitude
Unknown
Speed
Unknown
Apparent Right ascension
Unknown
Apparent Declination
Unknown
Sunlit
N/A
Visualization observer readout
Local Sidereal Time
13:57:35
Azimuth
Unknown
Elevation
Unknown
Doppler factor
Unknown
Orbital elements
Apogee altitude
916.961 km
Perigee altitude
890.346 km
Semi-major axis
7,281.79 km
Eccentricity
0.00183
Inclination
70.0817°
RAAN
21.364°
Arg. of periapsis
66.057°
True anomaly
305.55306°
Mean anomaly
305.7233°
Eccentric anomaly
305.6382°
Mean motion
3.4929 °/min
Orbital period
103.07 mins
BSTAR
0.000051714
Loading maneuver chart data...
Computing Atmospheric mass density...
Loading historical data...
Loading historical data...
Loading historical data...
Loading historical data...
Loading historical data...
Loading historical data...
Loading historical data...

Documentation

Showing up to 5 results
|